ONEWEB-0328 (49197 NORAD) Tracking and Keplerian Element Data

This shows tracking and keplerian element data for the satellite.

Feedback or suggestion? Click here.




ElementValue
Catalog49197
NameONEWEB-0328
Epoch Orbit779
Epoch Day300.83334491
Epoch Year2021
RAAN312.9864
Inclination87.1972
Eccentricity0.0020215
Argument of Perigee144.453
Mean Anonmoly246.8048
Mean Motion14.87010096
Decay Rate0.00027551
L11 49197U 21083M 21300.83334491 .00027551 00000-0 30543-2 0 9992
L22 49197 87.1972 312.9864 0020215 144.4530 246.8048 14.87010096 7791

Live tracking and technical data element details for ONEWEB-0328 (NORAD 49197). ONEWEB-0328 can be tracked NOW for your location showing map with azimuth and elevation plus other details from your city location.

Track the satellite on the map from your city or location and see movement details for azimuth, elevation, latitude, longitude, range, height, and movement on the map or in text.







IsCatalogInMostPopularTable: catalog: 49197, numindb: 10
Update: records affected: 1



GetName: 49197 ONEWEB-0328

Hit Count: updated at: Thu, 28 Oct 2021 12:00:30 GMT